Regional Weather Roundup
Issued by NWS

Home | Current Version | Previous Version | Graphics & Text | Print | Product List | Glossary On
Versions: 1 2 3 4 5 6 7 8 9 10 11 12 13 14 15 16 17 18 19 20 21 22 23 24 25 26 27 28 29 30 31 32 33 34 35 36 37 38 39 40 41 42 43 44 45 46 47 48 49 50
000
ASUS43 KOAX 261302
RWRNE

WEATHER ROUNDUP FOR NEBRASKA
NATIONAL WEATHER SERVICE OMAHA NE
800 AM CDT THU MAY 26 2016

NOTES: SATELLITE DATA IS BEING USED TO AUGMENT CLOUD COVER ABOVE
       12000 FEET.
       "FAIR" INDICATES FEW OR NO CLOUDS BELOW 12,000 FEET WITH NO
       SIGNIFICANT WEATHER AND/OR OBSTRUCTIONS TO VISIBILITY.

  * THESE STATIONS DO NOT REPORT WEATHER SUCH AS RAIN...SNOW OR FOG.

NEZ001>004-019>022-054>056-261400-
NEBRASKA PANHANDLE

CITY           SKY/WX    TMP DP  RH WIND       PRES   REMARKS
SCOTTSBLUFF    SUNNY     48  42  80 NW6       29.96R
ALLIANCE       SUNNY     44  42  93 SW3       29.94R
CHADRON        SUNNY     46  42  86 SW3       29.92S
SIDNEY         CLOUDY    48  43  82 SW5       29.99R
$$

NEZ057>060-069>072-079>082-261400-
SOUTHWEST NEBRASKA

CITY           SKY/WX    TMP DP  RH WIND       PRES   REMARKS
NORTH PLATTE   CLOUDY    54  52  93 E7        29.90S
IMPERIAL       MOSUNNY   55  51  86 N5        29.91S
LEXINGTON      CLOUDY    56  53  88 CALM      29.90F
MCCOOK         SUNNY     55  51  86 NE6       29.89F
$$

NEZ005>010-023>029-035>040-094-261400-
NORTH CENTRAL NEBRASKA

CITY           SKY/WX    TMP DP  RH WIND       PRES   REMARKS
VALENTINE      MOSUNNY   52  48  86 CALM      29.89S
AINSWORTH      PTSUNNY   55  52  91 CALM      29.88F
BROKEN BOW     PTSUNNY   58  52  80 SE3       29.90S
ORD            MOSUNNY   58  53  84 S3        29.89S
$$

NEZ041-046>049-061>064-073>077-083>087-261400-
SOUTH CENTRAL NEBRASKA

CITY           SKY/WX    TMP DP  RH WIND       PRES   REMARKS
GRAND ISLAND   MOSUNNY   60  56  86 N7        29.90R
HASTINGS       MOSUNNY   59  53  80 E8        29.89S
KEARNEY *      CLOUDY    55  52  88 N6        29.90S
YORK           PTSUNNY   59  55  88 SE7       29.89F
$$

NEZ011>018-030>034-042>045-261400-
NORTHEAST NEBRASKA

CITY           SKY/WX    TMP DP  RH WIND       PRES   REMARKS
NORFOLK        MOSUNNY   62  55  77 CALM      29.90S
ALBION         CLOUDY    59  54  83 SE5       29.92R
BLAIR          SUNNY     64  58  82 CALM      29.90R
FREMONT        SUNNY     64  57  78 CALM      29.90R
TEKAMAH        SUNNY     63  57  81 SW6       29.90R
$$

NEZ050>053-065>068-078-088>093-261400-
SOUTHEAST NEBRASKA

CITY           SKY/WX    TMP DP  RH WIND       PRES   REMARKS
LINCOLN        SUNNY     64  58  80 CALM      29.89F
OMAHA EPPLEY   MOSUNNY   65  59  81 CALM      29.88S
FALLS CITY     SUNNY     68  63  84 E6        29.86F
$$

NEZ044-045-051>053-067-261400-
OMAHA AREA

CITY           SKY/WX    TMP DP  RH WIND       PRES   REMARKS
OMAHA EPPLEY   MOSUNNY   65  59  81 CALM      29.88S
BLAIR          SUNNY     64  58  82 CALM      29.90R
FREMONT        SUNNY     64  57  78 CALM      29.90R
$$



USA.gov is the U.S. government's official web portal to all federal, state and local government web resources and services.